{"data":{"norad_id":69295,"intl_designator":"2026-118AE","name":"KUIPER-00620","alt_names":[],"object_type":"PAYLOAD","status":"ACTIVE","operator":null,"country":"US","launch_date":"2026-05-29","launch_site_code":"AFETR","launch_vehicle":null,"mission":null,"orbit_class":"UNKNOWN","rcs_meters":null,"size_class":null,"mass_kg":null,"dimensions":null,"purposes":[],"wikipedia_slug":null,"has_3d_model":false,"image_url":null,"decayed_at":null,"tle_current":{"epoch":"2026-09-20T04:40:48.786240Z","epoch_age_seconds":57196,"freshness":"FRESH","line1":"1 69295U 26118AE  26263.19500910 -.00000434  00000+0 -28008-4 0  9997","line2":"2 69295  51.9048 333.0565 0000301  56.2812 303.8179 14.79928149 18333","mean_motion":14.79928149,"eccentricity":3.01e-5,"inclination_deg":51.9048,"raan_deg":333.0565,"arg_perigee_deg":56.2812,"mean_anomaly_deg":303.8179,"bstar":-2.8008e-5,"rev_number":1833,"period_min":97.302021113189,"perigee_km":629.34001121467,"apogee_km":629.76187402882,"semimajor_km":7007.6879426217,"source":"CELESTRAK","updated_at":"2026-09-20T09:00:24.809214Z"}}}